Regional Weather Roundup
Issued by NWS

Home | Current Version | Previous Version | Text Only | Print | Product List | Glossary On
Versions: 1 2 3 4 5 6 7 8 9 10 11 12 13 14 15 16 17 18 19 20 21 22 23 24 25 26 27 28 29 30 31 32 33 34 35 36 37 38 39 40 41 42 43 44 45 46 47 48 49 50
000
ASUS43 KBIS 051920
RWRND

NORTH DAKOTA REGIONAL WEATHER ROUNDUP
NATIONAL WEATHER SERVICE BISMARCK ND
200 PM CDT TUE MAY 05 2015

NOTE: "FAIR" INDICATES FEW OR NO CLOUDS BELOW 12,000 FEET WITH NO
SIGNIFICANT WEATHER AND/OR OBSTRUCTIONS TO VISIBILITY.


NDZ001>003-009>011-017-052000-
NORTHWEST NORTH DAKOTA

CITY           SKY/WX    TMP DP  RH WIND       PRES   REMARKS
WILLISTON      SUNNY     78  39  24 SE24G30   29.83F
MINOT          CLOUDY    75  32  20 S22G37    29.93F
MINOT AFB      MOSUNNY   76  34  21 S28G35    29.92F
$$

NDZ018>021-031>035-040>046-052000-
SOUTHWEST NORTH DAKOTA

CITY           SKY/WX    TMP DP  RH WIND       PRES   REMARKS
BISMARCK       SUNNY     75  29  18 SE29G38   29.97F
DICKINSON      SUNNY     72  47  40 S28G38    29.88F
GARRISON         N/A     74  34  23 S22G31    29.93F
HETTINGER ARPT MOSUNNY   68  49  50 SE23G32   29.93F
$$

NDZ004>008-012>016-024-026-027-054-052000-
NORTHEAST NORTH DAKOTA

CITY           SKY/WX    TMP DP  RH WIND       PRES   REMARKS
GRAND FORKS    MOSUNNY   75  20  12 S16G28    30.06F
GRND FRKS AFB  SUNNY     75  24  15 S17G25    30.06F
DEVILS LAKE    MOSUNNY   73  30  20 S20       30.02F
$$

NDZ022-023-025-028>030-036>039-047>053-052000-
SOUTHEAST NORTH DAKOTA

CITY           SKY/WX    TMP DP  RH WIND       PRES   REMARKS
FARGO          SUNNY     76  22  13 SE20G26   30.06F
JAMESTOWN      PTSUNNY   74  25  16 SE17G30   30.03F
$$




USA.gov is the U.S. government's official web portal to all federal, state and local government web resources and services.